Location: Chandolas
(44.4033°N, 4.2533°E)
Time: 05:39:19
(UTC+00:00)

Cosmos 2369 - Pass Details

Date: 15 November 2019
Orbit: 838 x 858 km, 71.0° (Epoch: 07 December)

Event Time Altitude Azimuth Distance (km) Brightness Sun altitude
Exits shadow 04:11:05 41° 197° (SSW) 1,224 4.3 -26.3°
Drops below altitude 10° 04:14:58 10° 173° (S) 2,484 6.2 -25.6°
Sets 04:17:26 0° 170° (S) 3,415 7.0 -25.1°
